1st Responders/1st Detectors/Storm Spotters Weather Summary for Whitley County, KY

Forecast Maps


Reg. NEXRAD Animation


National Fire Danger: Day 1 & 2 Map

Current NWS Watch/Warnings

SPC Convective Day 1 Outlook


Day 2 Outlook

(Click images to enlarge|Page will refresh every 5 minutes)
UK Ag. Weather Center Desktop Severe Weather Service[HERE]
Whitley County, KY Hazardous Weather Outlook Webcast
(9 AM to 9 PM Mon-Fri)
[Fast]
[Dial-up]


UKAWC 1st Detectors/1st Responders Precision Weather Forecast For WHITLEY County, Kentucky
(based on the NWS County Digital Forecast)

ISSUED AT 09:00 UTC ON THURSDAY MAY 23 2019
DAY THURSDAY
EDT 3HR 6A 7A 8A 9A 10A 11A NOON 1P 2P 3P 4P 5P 6P 7P
MAX/MIN -- -- 65° -- -- -- -- -- -- -- -- -- -- 88°
TEMP 67° 67° 68° 72° 76° 79° 83° 85° 86° 88° 88° 88° 86° 85°
SKY COVER 22% 29% 37% 43% 50% 56% 53% 50% 47% 44% 41% 38% 34% 30%
Clouds
DEW PT 63° 63° 63° 65° 65° 65° 65° 65° 63° 63° 63° 61° 61° 63°
RH 87% 84% 84% 78% 68% 61% 54% 51% 46% 43% 43% 41% 43% 47%
POP 12HR -- -- 2% -- -- -- -- -- -- -- -- -- -- --
RAIN/SNOW (liq.equ) -- -- 0.00in -- -- -- -- -- 0.00in -- -- -- -- --
SNOWFALL -- -- 0in -- -- -- -- -- 0in -- -- -- -- --
WIND SPEED(MPH) 2 2 5 6 7 9 10 13 13 14 14 13 10 8
WIND Gust(MPH) 7 7 7 9 14 16 17 21 21 22 22 21 17 15
WIND DIR S S S S SW SW SW SW SW SW SW W W SW
DEW Mod Dew Mod Dew Lgt Dew -- -- -- -- -- -- -- -- -- -- --
HeatIndex 67 67 68 72 76 82 84 86 88 88 88 88 87 85
Rain Showers -- -- -- -- -- -- -- -- -- -- -- -- -- --
Thunder Storm -- -- -- -- -- -- -- -- -- -- -- -- -- --
WIND CHILL -- -- -- -- -- -- -- -- -- -- -- -- -- --
SPRAY COND
DRY COND
LIVESTOCK HEATSTRESS 66.41 66.28 67.19 70.40 72.97 74.67 76.88 77.94 77.92 78.85 78.85 78.52 77.47 77.36



DAY FRIDAY SATURDAY SUNDAY MONDAY TUESDAY WEDNESDAY
EDT 6HR 8P 9P 10P 11P MIDN 1A 2A 3A 4A 5A 6A 7A 8A 9A 10A 11A NOON 1P 2P 3P 4P 5P 8P 11P 2A 5A 8A 11A 2P 5P 8P 2A 8A 2P 8P 2A 8A 2P 8P 2A 8A 2P 8P 2A 8A 2P 8P
MAX/MIN -- -- -- -- -- -- -- -- -- -- -- -- 65° -- -- -- -- -- -- -- -- 88° -- -- -- -- 65° -- -- 88° -- -- 65° 90° -- -- 65° 88° -- -- 65° 88° -- -- 67° 86° --
TEMP 81° 79° 76° 72° 70° 68° 67° 67° 65° 65° 65° 67° 68° 72° 76° 81° 83° 85° 88° 88° 88° 88° 83° 72° 67° 65° 70° 81° 86° 86° 81° 68° 68° 88° 83° 67° 70° 86° 81° 67° 70° 86° 81° 70° 70° 85° 79°
SKY COVER 27% 25% 23% 21% 25% 29% 33% 32% 30% 29% 28% 26% 25% 26% 26% 27% 31% 36% 40% 40% 40% 40% 8% 4% 12% 25% 31% 28% 34% 32% 24% 15% 14% 20% 37% 48% 49% 50% 57% 45% 39% 35% 26% 24% 33% 45% 47%
Clouds
DEW PT 63° 63° 63° 63° 63° 63° 63° 63° 63° 63° 63° 63° 65° 65° 65° 65° 65° 65° 65° 63° 63° 63° 65° 65° 65° 65° 67° 67° 63° 65° 65° 63° 65° 61° 63° 63° 65° 63° 65° 63° 65° 63° 63° 63° 63° 61° 61°
RH 52% 58% 66% 73% 78% 81% 83% 86% 90% 90% 93% 89% 86% 78% 68% 60% 54% 49% 46% 43% 43% 43% 56% 78% 89% 96% 87% 64% 46% 50% 57% 83% 87% 38% 51% 84% 84% 46% 58% 86% 83% 44% 54% 78% 80% 43% 55%
POP 12HR 7% -- -- -- -- -- -- -- -- -- -- -- 5% -- -- -- -- -- -- -- -- -- 11% -- -- -- 8% -- -- -- 16% -- 8% -- 9% -- 14% -- 24% -- 17% -- 11% -- 11% -- 18%
RAIN/SNOW (liq.equ) 0.00in -- -- -- -- -- 0.00in -- -- -- -- -- 0.00in -- -- -- -- -- 0.00in -- -- -- 0.00in -- 0.00in -- 0.00in -- 0.00in -- 0.00in -- -- -- -- -- -- -- -- -- -- -- -- -- -- -- --
SNOWFALL 0in -- -- -- -- -- 0in -- -- -- -- -- 0in -- -- -- -- -- 0in -- -- -- 0in -- 0in -- 0in -- 0in -- 0in -- -- -- -- -- -- -- -- -- -- -- -- -- -- -- --
WIND SPEED(MPH) 7 5 2 1 1 1 1 1 1 1 1 1 1 2 5 7 7 7 7 7 7 7 2 0 1 1 1 7 7 7 5 2 2 7 7 2 2 8 6 2 2 8 7 5 6 10 7
WIND DIR SW SW SW SW SW SW SW SW SW SW SW SW SW SW W W W W W W W W NW S S S S SW W SW W SW S W W SW S W W S S W SW S S SW SW
HeatIndex 83 79 76 72 70 68 67 67 65 65 65 67 68 72 76 83 86 87 89 90 90 90 85 72 67 65 70 83 88 89 82 68 68 88 84 67 70 88 82 67 70 87 83 70 70 86 79
Rain Showers -- -- -- -- -- -- -- -- -- -- -- -- -- -- -- -- -- -- -- -- -- -- -- -- -- -- -- Slight Chance Slight Chance -- -- -- -- -- -- -- Slight Chance Slight Chance Slight Chance -- -- -- -- -- -- Slight Chance Slight Chance
Thunder Storm -- -- -- -- -- -- -- -- -- -- -- -- -- -- -- -- -- -- -- -- -- -- -- -- -- -- -- Slight Chance -- -- -- -- -- -- -- -- Slight Chance Slight Chance Slight Chance -- -- -- -- -- -- Slight Chance Slight Chance
WIND CHILL -- -- -- -- -- -- -- -- -- -- -- -- -- -- -- -- -- -- -- -- -- -- -- -- -- -- -- -- -- -- -- -- -- -- -- -- -- -- -- -- -- -- -- -- -- -- --
SPRAY COND
DRY COND
LIVESTOCK HEATSTRESS 75.14 74.33 72.78 70.04 68.64 67.04 66.23 66.37 64.66 64.66 64.76 66.50 67.29 70.40 72.97 76.12 76.88 77.65 79.33 78.85 78.85 78.85 77.14 70.40 66.50 64.86 69.20 76.60 77.92 78.52 75.75 67.14 67.34 78.04 76.48 66.28 69.01 77.92 75.87 66.37 68.95 77.62 75.38 68.64 68.77 76.79 74.00

Click on individual weather variable above in left-hand column (ie., TEMP, RH, QPF 12HR) to view state forecast maps






NWS 48 Hr. Forecast Maps,

Regional Hourly Observations For WHITLEY County, Kentucky
Issued at 500 AM EDT THU MAY 23 2019
...EASTERN KENTUCKY...
  
CITY           SKY/WX    TMP DP  RH WIND       PRES   REMARKS
JACKSON          N/A     69  60  73 CALM      30.16R                  
LONDON           N/A     63  60  90 CALM      30.16R                  
SOMERSET*        N/A     66  59  77 S3        30.16R                  
MONTICELLO*      N/A     62  60  93 CALM      30.17R                  
WILLIAMSBURG*    N/A     63  63 100 CALM      30.17R                  
MIDDLESBORO*     N/A     61  61 100 CALM      30.19R                  
HARLAN APT*      N/A     62  61  97 CALM      30.20R                  
PIKE CO APT*     N/A     71  64  78 S5        30.17R                  
BIG SANDY APT*   N/A     70  64  81 S3        30.16R                  
MOREHEAD APT*  CLOUDY    72  59  64 S7        30.13S                  
ASHLAND*         N/A     66  64  93 CALM      30.10R                  


Current NOWCAST not available:
Nowcasts are not issued routinely during fair weather. Only when
precipitation or other significant weather is occuring in this county will these
forecasts be issued. Currently, there is no short term forecast in effect.


Fire Weather Forecast For WHITLEY County, KY
Provided by the National Weather Service:

Issued at: Thu May 23 05:35:12 EDT 2019

535 AM EDT Thu May 23 2019

                      Today        Tonight      Fri          

Cloud Cover           PCldy        PCldy        PCldy        
Chance precip (%)     0            0            20           
Precip type           None         None         tstms        
Temp (24H TREND)      88 (+1)      63 (-2)      88           
Rh % (24H TREND)      40 (0)       100 (+8)     41           
20ftwnd-AM(mph)       SW 5-9 G19                W 2-6        
20ftwnd-PM(mph)       SW 7-11 G21  Lgt/Var      W 3-7        
Precip duration                                 1            
Precip begin                                                 
Precip end                                                   
Precip amount         0.00         0.00         0.00         
LAL                   1            1            2            
Haines Index (MID)    3                         3            
Mixing hgt(ft-AGL)    6700                      6700         
Transport wnd (mph)   SW 21                     W 12         
Vent rate (kt-ft)     119167                    66466        
ADI Early             72 Good      4 Very Poor  76 Good      
ADI Late              82 Good      4 Very Poor  0 Very Poor  
Max LVORI Early       5            5            5            
Max LVORI Late        2            7            2            

Remarks...None.


SPC's Fire Weather Web Tool (Excellent!), SPC's Fire Weather Outlooks, NWS Fire Weather WEB, Fire Danger Class Map,
Keetch-Byram Drought Index, ROMAN Web, Haines Index ,
WFAS's 10-hr Dead Fuel Moist., WFAS's 100-hr Dead Fuel Moist., Probablity of Ignition, Visual blackness Map, Palmer Drought Index, HPC's Rainfall Forecast Maps


Hazardous Weather Outlook For WHITLEY County, Kentucky
321 PM EDT Wed May 22 2019

 DAY ONE  Tonight.

No hazardous weather is expected at this time.

 DAYS TWO THROUGH SEVEN  Thursday through Tuesday.

Thunderstorms will be possible, mainly during the afternoon and
evening hours, Thursday through Tuesday. A thunderstorm or two 
could produce strong gusty winds on Thursday, mainly north of the 
Mountain Parkway.

 SPOTTER INFORMATION STATEMENT  

Spotter activation is not anticipated.

Latest WHITLEY County, Kentucky Watches, Warnings and Advisories.
Additional Drought Info.: UKAWC Drought Page, Kentucky Drought Watch


7-Day Forecast For WHITLEY County, KY

TODAY
Warm. Mostly sunny. Highs in the upper 80s. Southwest winds around 10 mph.

TONIGHT
Mostly clear. Patchy valley fog near dawn. Lows in the mid 60s. Light winds.

FRIDAY
Warm. Mostly sunny. Highs in the upper 80s. Light winds.

FRIDAY NIGHT
Mostly clear. Lows in the upper 60s. Light winds.

SATURDAY
Mostly sunny with a 20 percent chance of showers. Highs in the upper 80s. Light winds.

SATURDAY NIGHT
Mostly clear. Lows in the upper 60s.

SUNDAY
Hot, sunny. Highs in the lower 90s.

SUNDAY NIGHT
Partly cloudy. Lows in the mid 60s.

MEMORIAL DAY
Mostly sunny. Highs in the upper 80s.

MONDAY NIGHT
Partly cloudy. Lows in the upper 60s.

TUESDAY
Hot. Mostly sunny. Highs in the lower 90s.

TUESDAY NIGHT
Mostly clear. Lows in the upper 60s.

WEDNESDAY
Mostly sunny. Highs in the upper 80s.

Ag Weather Center, Department of Biosystems & Agricultural Engineering, University of Kentucky